Overview Statistics Trail Chart Weather Telemetry Raw packets
 

This is the latest recevied weather packets stored in our database for station/object W8KVG. If no packets are shown the sender has not sent any weather packets the latest 10 day(s).

<< 52 53 54 55 56 57 58 >>
Time Temp. Humidity Pressure Rain* Wind** Luminosity Snow
1777549689 7.78° C 98% 1009.4 hPa 0.51 mm - 15 W/m² -
1777549383 7.78° C 98% 1009.4 hPa 1.78 mm - 20 W/m² -
1777549081 7.78° C 97% 1009.2 hPa 1.27 mm - 16 W/m² -
1777548777 8.33° C 96% 1009 hPa 0 mm - 9 W/m² -
1777548475 8.33° C 96% 1009 hPa 0 mm - 9 W/m² -
1777548171 8.33° C 96% 1008.9 hPa 0 mm - 5 W/m² -
1777547867 8.33° C 97% 1008.9 hPa 0 mm - 5 W/m² -
1777547563 8.33° C 97% 1008.9 hPa 0 mm - 10 W/m² -
1777547261 8.33° C 97% 1008.9 hPa 0 mm - 4 W/m² -
1777546958 8.33° C 97% 1009 hPa 0 mm - 4 W/m² -
1777546655 8.33° C 97% 1008.8 hPa 0 mm - 4 W/m² -
1777546351 8.33° C 97% 1008.8 hPa 0 mm - 9 W/m² -
1777546049 8.33° C 97% 1008.7 hPa 0 mm - 8 W/m² -
1777545745 8.33° C 98% 1008.9 hPa 0 mm - 7 W/m² -
1777545442 8.33° C 98% 1008.9 hPa 0 mm - 4 W/m² -
1777545139 8.33° C 97% 1009 hPa 0 mm - 2 W/m² -
1777544836 8.33° C 98% 1008.9 hPa 0 mm - 2 W/m² -
1777544532 8.33° C 97% 1008.8 hPa 0 mm - 1 W/m² -
1777544229 8.33° C 98% 1009 hPa 0 mm - 1 W/m² -
1777543926 8.33° C 98% 1008.9 hPa 0 mm - 0 W/m² -
1777543623 8.33° C 98% 1009.1 hPa 0 mm - 0 W/m² -
1777543318 8.33° C 98% 1009 hPa 0 mm - 0 W/m² -
1777543014 8.33° C 98% 1009 hPa 0 mm - 0 W/m² -
1777542710 8.33° C 98% 1009 hPa 0 mm - 0 W/m² -
1777542407 8.33° C 98% 1009 hPa 0 mm - 0 W/m² -

* Rain latest hour (hover to see other rain measurements)
** Current wind speed in m/s (hover to see current wind gust speed)